DELTA 1 DEB, 7046

Orbit data source: Space-Track

DELTA 1 DEB, 7046 is space debris in SSO originally from a launch on Tue, 06 Nov 1973 UTC launched from the Air Force Western Test Range (AFWTR). Debris objects in space refer to the collection of defunct objects orbiting the Earth. Examples of debris include non-operational satellites, rocket bodies, and fragments generated from explosions, collisions, or faulty payload assembly.

Loading next visibility...
DELTA 1 DEB details
Identifier
7046, 1973-086AN
Orbit
SSO
Last TLE update22 hours ago
Origin
Flag of USGSFC (US)
ManufacturerUnknown
MissionSpacecraft
Bus & MotorUnknown
MassUnknown
Launch date (UTC)
1973-11-06 (51 years ago)
Launch vehicleUnknown
Launch site
Air Force Western Test Range (AFWTR)
Object type
Payload
Rocket body
Debris
Shape & HBRUnknown
Radar Cross SectionSmall (<0.1 m²)

Expand to show TLE details & history

TLE from 22 hours ago
0 DELTA 1 DEB
1 07046U 73086AN  24360.58393376  .00000007  00000-0  45920-3 0  9990
2 07046 102.5403   6.4044 0057702 251.1934 230.1425 12.29370415287826
Epoch: 2024-12-25T14:00Z
Definitive object data (Epoch: 2024-12-25T14:00:51.876Z)
Latitude57.04344°
Longitude-98.42358°
Altitude1,590.797 km
Speed7.066 km/s
True Right ascension13h 45m 28s
True Declination56° 54' 10"
Sunlit
Object was in daylight at TLE epoch
Visualization TLE readout
Latitude22.33438°
Longitude-112.25883°
Altitude1,556.062 km
Speed7.09 km/s
Apparent Right ascension15h 16m 36s
Apparent Declination-16° 09' 04"
Sunlit
Object is in daylight
Visualization observer readout
Local Sidereal Time11:03:05
Azimuth119.687° SE
Elevation8.722°
Doppler factor1
Orbital elements
Apogee altitude1,595.353 km
Perigee altitude1,503.864 km
Semi-major axis7,927.746 km
Eccentricity0.0057702
Inclination102.5403°
RAAN6.4044°
Arg. of periapsis251.1934°
True anomaly229.63727°
Mean anomaly230.1425°
Eccentric anomaly229.88965°
Mean motion3.07481 °/min
BSTAR0.0004592
Orbital period117.08 mins
Loading maneuver chart data...
Loading historical data...
Loading historical data...
Loading historical data...
Loading historical data...
Loading historical data...
Loading historical data...
Loading historical data...

DELTA 1 DEB Visibility forecast

Observer location: undefined°, undefined

Span
Click to sort rows by Start time (UTC) header in descending order
Start Az.
Max El. time (UTC)
Max El. Az.
Max El.
End time (UTC)
End Az.
17 mins2024-12-26 13:24:42.293Z21.926° NNE2024-12-26 13:33:42.293Z128.837° SE43.687°2024-12-26 13:41:42.293Z191.674° SSW
12 mins2024-12-26 15:21:42.293Z352.886° N2024-12-26 15:27:42.293Z301.764° NW25.225°2024-12-26 15:33:42.293Z255.299° W
13 mins2024-12-26 22:43:42.293Z102.099° ESE2024-12-26 22:49:42.293Z52.012° ENE25.789°2024-12-26 22:56:42.293Z359.925° N
16 mins2024-12-27 00:35:42.293Z169.557° S2024-12-27 00:43:42.293Z262.479° W43.726°2024-12-27 00:51:42.293Z337.328° NNW
5 mins2024-12-27 02:37:42.293Z257.182° W2024-12-27 02:39:42.293Z271.365° WNW12.915°2024-12-27 02:42:42.293Z292.157° WNW
|